Flag for United Kingdom Weather past 2 weeks in Norwich, England, United Kingdom

Now
68 °F

Passing clouds.


Feels Like: 68 °F
Forecast: 53 / 73 °F
Wind: 10 mph from Southwest

Location: Norwich Weather Centre

Current Time: Aug 1, 2015 at 3:06:54 PM

Latest Report: Aug 1, 2015 at 2:20 PM


Visibility: N/A

Pressure: 29.98 "Hg

Humidity: 43%

Dew point: 45 °F

Location of NorwichLocation

Historic Weather in Norwich — Graph

°F

Norwich temperature yesterday

Maximum temperature yesterday: 66 °F (at 11:50 AM)
Minimum temperature yesterday: 45 °F (at 12:50 AM)
Average temperature yesterday: 58 °F

Past Weeks' High & Low Weather Summary

 TemperatureHumidityPressure
High79 °F (Jul 17, 2:50 PM)100% (Jul 23, 12:20 AM)30.15 "Hg (Jul 23, 12:20 AM)
Low45 °F (Jul 20, 4:50 AM)36% (Jul 18, 2:20 PM)29.36 "Hg (Jul 26, 11:50 PM)
Average60 °F73%29.84 "Hg
* Reported Jul 17 1:20 PM — Aug 1 1:50 PM, Norwich, Weather by CustomWeather, © 2015

Note: Actual official high and low records may vary slightly from our data, if they occured in-between our weather recording intervals... More about our weather records

Advertising

Norwich weather history for previous 24 hours

 ConditionsComfort  
Time TempWeatherWind HumidityBarometerVisibility
1:50 PM
Sat, Aug 1
70 °FPassing clouds.10 mph40%29.98 "HgN/A
1:20 PM70 °FPassing clouds.10 mph40%29.98 "HgN/A
12:50 PM68 °FPassing clouds.8 mph43%29.98 "HgN/A
12:20 PM66 °FPassing clouds.10 mph46%29.98 "HgN/A
11:50 AM68 °FPassing clouds.9 mph46%30.01 "HgN/A
11:20 AM66 °FPassing clouds.12 mph52%30.01 "HgN/A
10:50 AM64 °FPassing clouds.10 mph56%30.01 "HgN/A
10:20 AM63 °FPassing clouds.8 mph68%30.01 "HgN/A
9:50 AM63 °FPassing clouds.9 mph64%30.01 "HgN/A
9:20 AM63 °FPassing clouds.8 mph64%29.98 "HgN/A
8:50 AM61 °FPassing clouds.6 mph68%29.98 "HgN/A
8:20 AM59 °FPassing clouds.5 mph72%29.98 "HgN/A
7:50 AM57 °FPassing clouds.6 mph77%29.98 "HgN/A
7:20 AM55 °FSunny.6 mph77%29.98 "Hg10 mi
6:50 AM55 °FPassing clouds.5 mph82%29.98 "HgN/A
6:20 AM54 °FSunny.6 mph88%29.98 "Hg10 mi
5:50 AM52 °FClear.6 mph88%29.95 "Hg10 mi
5:20 AM52 °FCool.7 mph94%29.95 "HgN/A
4:50 AM54 °FCool.7 mph82%29.98 "HgN/A
4:20 AM54 °FCool.8 mph88%29.98 "HgN/A
3:50 AM55 °FCool.7 mph82%29.98 "HgN/A
3:20 AM57 °FCool.8 mph82%29.98 "HgN/A
2:50 AM57 °FCool.8 mph88%29.98 "HgN/A
2:20 AM57 °FCool.9 mph82%29.98 "HgN/A
1:50 AM57 °FCool.8 mph82%29.98 "HgN/A
1:20 AM57 °FCool.9 mph82%29.98 "HgN/A
12:50 AM57 °FCool.9 mph82%29.98 "HgN/A
12:20 AM57 °FCool.8 mph82%29.98 "HgN/A
11:50 PM
Fri, Jul 31
57 °FCool.8 mph82%30.01 "HgN/A
11:20 PM57 °FCool.8 mph77%30.01 "HgN/A
10:50 PM57 °FCool.9 mph82%30.01 "HgN/A
10:20 PM57 °FCool.9 mph77%30.01 "HgN/A
9:50 PM57 °FCool.8 mph77%30.01 "HgN/A
9:20 PM59 °FPassing clouds.10 mph72%30.01 "HgN/A
8:50 PM59 °FPassing clouds.9 mph72%30.01 "HgN/A
8:20 PM61 °FSunny.9 mph63%30.01 "Hg10 mi
7:50 PM63 °FPassing clouds.12 mph64%30.01 "HgN/A
7:20 PM63 °FPassing clouds.14 mph64%30.01 "HgN/A
6:50 PM64 °FPassing clouds.12 mph56%30.01 "HgN/A
6:20 PM66 °FPassing clouds.14 mph49%30.01 "HgN/A
5:50 PM64 °FPassing clouds.13 mph52%30.01 "HgN/A
5:20 PM66 °FPassing clouds.12 mph52%30.01 "HgN/A
4:50 PM66 °FPassing clouds.13 mph52%30.01 "HgN/A
4:20 PM66 °FPassing clouds.9 mph52%30.04 "HgN/A
3:50 PM66 °FPassing clouds.10 mph52%30.04 "HgN/A
3:20 PM66 °FPassing clouds.9 mph52%30.04 "HgN/A
Weather by CustomWeather, © 2015

See weather overviewHow to use our weather pages